Location: Antioch Baptist Church
(32.7160°N, 96.7483°W)
Time: 17:45:50
(UTC+00:00)

USA 215 - Pass Details

Date: 05 December 2023
Orbit: 1101 x 1106 km, 123.0° (Epoch: 19 February)

Event Time Altitude Azimuth Distance (km) Brightness Sun altitude
Rises 12:14:19 0° 36° (NE) 3,928 6.4 -12.5°
Reaches altitude 10° 12:16:53 10° 31° (NNE) 2,968 5.7 -12.0°
Maximum altitude 12:23:06 48° 320° (NW) 1,411 3.5 -10.8°
Drops below altitude 10° 12:29:19 10° 248° (WSW) 2,960 5.1 -9.5°
Sets 12:31:53 0° 243° (WSW) 3,916 5.8 -9.0°
